Location: G�nolhac
(44.3498°N, 3.9506°E)
Time: 22:16:10
(UTC+00:00)

Daily predictions for brighter satellites

Satellite Brightness Start Highest point End
(mag) Time Altitude Azimuth Time Altitude Azimuth Time Altitude Azimuth
Cosmos 2219 Rocket 2.7 18:53:43 10° NNW 18:59:11 45° ENE 19:04:37 10° SE
BREEZE-M DEB (TANK) 4.1 18:58:10 10° WNW 19:01:01 57° SSW 19:07:48 10° SE
USA-17 4.5 18:57:08 10° SSW 19:01:09 65° SE 19:04:21 10° NE
SL-16 R/B 4.0 18:56:17 10° NW 19:01:16 33° WSW 19:06:15 10° SSW
Cosmos 1455 3.1 18:58:28 10° SSE 19:01:39 27° E 19:04:51 10° NNE
Okean-O 3.6 18:58:01 10° S 19:02:19 51° W 19:06:40 10° NNW
ATLAS 5 CENTAUR R/B 4.0 18:59:18 10° W 19:02:38 23° NW 19:06:20 10° NNE
CZ-4C R/B 3.4 19:00:11 10° WSW 19:04:57 44° NW 19:10:43 10° NNE
OBJECT-B 1.6 19:02:39 10° SE 19:05:34 32° ENE 19:08:31 10° N
Abrixas rocket 2.3 19:04:22 10° SSW 19:05:47 19° SSE 19:07:14 10° E
NOSS 3-4 (A) 3.8 19:03:30 10° SW 19:09:18 68° NW 19:15:35 10° NE
NOSS 3-4 (C) 3.8 19:03:36 10° SW 19:09:24 69° NW 19:15:41 10° NE
SL-08 RB Rocket 4.3 19:04:50 10° S 19:09:27 64° W 19:14:04 10° NNW
Cosmos 405 3.1 19:10:59 10° S 19:14:20 51° E 19:17:43 10° NNE
Cosmos 2058 Rocket 3.3 19:12:06 10° SSE 19:16:16 47° E 19:20:28 10° NNE
Meteor 2-10 Rocket 3.5 19:12:44 10° S 19:17:56 75° E 19:23:24 10° NNE
Cosmos 1953 Rocket 3.5 19:16:13 10° N 19:20:36 83° E 19:24:55 10° S
Cosmos 405 Rocket 4.1 19:18:42 10° NNE 19:21:55 23° ENE 19:24:34 13° ESE
ATLAS 2AS CENTAUR R/B 3.1 19:14:48 10° SW 19:22:44 87° NW 19:30:35 10° NE
In-Cosmos 22 Rocket 4.4 19:17:36 10° NNW 19:23:28 83° W 19:29:17 10° S
Lacrosse 5 rocket 3.9 19:21:00 10° WNW 19:24:02 20° NNW 19:27:12 10° NNE
Cosmos 2098 Rocket 4.4 19:19:01 10° N 19:26:11 76° E 19:33:35 10° SSE
USA 186 1.9 19:23:09 10° S 19:26:23 76° W 19:29:29 10° NNW
Cosmos 2251 Rocket 3.8 19:21:56 10° S 19:27:02 46° ESE 19:32:07 10° NNE
Cosmos 2237 Rocket 3.4 19:22:34 10° N 19:27:16 26° NE 19:31:22 12° ESE
Cosmos 389 Rocket 4.0 19:26:00 13° SE 19:27:51 19° E 19:30:23 10° NE
Cosmos 1092 Rocket 4.0 19:25:32 10° N 19:31:49 77° E 19:38:00 10° SSE
Exosat Rocket 4.0 19:25:29 10° NNW 19:31:54 56° ENE 19:36:25 13° SE
SJ-6B 2.6 19:31:34 10° SSE 19:35:17 90° WNW 19:39:04 10° NNW
Ariane Rocket 3.0 19:30:48 10° SSE 19:35:46 63° ENE 19:40:47 10° N
SPOT 3 Rocket 4.3 19:32:48 14° SE 19:36:45 34° ENE 19:41:24 10° N
BREEZE-M DEB (TANK) 2.4 19:32:36 10° SW 19:37:51 44° SSE 19:39:40 16° E
Resurs 01 Rocket 2.5 19:36:06 15° SE 19:39:10 33° ENE 19:43:10 10° N
Cosmos 1892 3.4 19:37:01 10° NNW 19:40:42 54° W 19:44:23 10° S
Cosmos 2227 Rocket 3.5 19:40:19 16° SE 19:42:22 19° E 19:46:10 10° ENE
MOS 1 4.3 19:37:33 10° SSE 19:43:10 76° ENE 19:48:50 10° NNW
Resurs 1-3 3.6 19:44:04 12° SSE 19:48:05 68° ENE 19:52:28 10° N
Cosmos 2297 Rocket 3.0 19:44:42 10° SSE 19:49:23 28° ESE 19:54:06 10° NE
IRS-1A Rocket 4.3 19:44:20 10° SSE 19:49:54 86° ENE 19:55:38 10° NNW
Cosmos 1825 2.1 19:46:55 10° N 19:50:43 86° E 19:54:05 13° S
Cosmos 1408 3.4 19:47:41 10° NNW 19:51:10 50° W 19:54:36 10° S
Cosmos 44 3.4 19:46:51 10° SSW 19:51:56 89° ESE 19:57:20 10° NE
Cosmos 614 Rocket 4.0 19:47:44 10° S 19:52:44 55° ESE 19:57:44 10° NNE
Cosmos 2219 4.1 19:49:45 13° SSE 19:53:40 27° ESE 19:58:18 10° NE
Cosmos 2333 Rocket 2.7 19:48:00 10° NNW 19:53:42 61° WSW 19:59:19 10° S
COSMOS 2487 4.4 19:51:46 10° SW 19:54:51 32° WNW 19:57:58 10° N
Cosmos 1992 Rocket 4.3 19:54:25 10° NNW 19:59:35 65° WSW 20:04:33 11° S
ATLAS 3B R/B 2.8 19:55:16 10° NW 20:02:21 90° SW 20:07:47 20° SE
FALCON 9 DEB 3.6 20:00:36 10° WSW 20:03:59 60° NNW 20:07:23 10° NE
Cosmos 2279 Rocket 3.9 19:58:47 10° S 20:04:53 66° E 20:11:02 10° NNE
USA 215 3.8 20:00:59 17° E 20:05:56 52° NNE 20:12:14 10° NW
IRIDIUM 104 4.3 20:05:53 16° SSE 20:10:02 61° E 20:15:12 10° N
SL-4 R/B 3.6 20:07:29 10° S 20:09:22 20° S 20:09:22 20° S
Cosmos 2026 Rocket 4.3 20:07:47 10° NNW 20:13:48 66° W 20:19:52 10° S
ERS-1 Rocket 4.3 20:14:28 21° E 20:15:49 23° ENE 20:19:42 10° NNE
SL-8 R/B 3.8 20:11:33 10° WNW 20:16:21 68° SSW 20:18:25 33° SE
Orbus 7S? 4.4 20:14:21 10° WSW 20:17:07 43° NNW 20:22:08 10° NE
Cosmos 407 Rocket 3.6 20:14:02 15° S 20:18:01 49° ESE 20:22:59 10° NNE
RESURS DK-1 3.7 20:15:12 10° SW 20:19:07 42° WNW 20:23:05 10° NNE
IRIDIUM 114 4.2 20:15:00 16° S 20:19:10 74° E 20:24:24 10° N
Cosmos 1818 4.0 20:16:22 10° SW 20:21:46 65° NW 20:27:14 10° NNE
SL-16 R/B 3.5 20:17:19 10° N 20:22:02 26° NE 20:24:13 21° E
CZ-2C R/B 3.7 20:18:22 10° NNE 20:22:44 54° E 20:24:29 33° SSE
Cosmos 1980 3.7 20:17:27 10° NNW 20:23:09 68° ENE 20:25:47 32° SE
Cosmos 1356 3.7 20:23:29 10° NNW 20:26:53 62° W 20:28:00 37° SSW
IRIDIUM 103 4.3 20:24:07 16° S 20:28:18 89° E 20:33:34 10° N
SPOT 5 3.9 20:28:33 25° ENE 20:29:12 26° ENE 20:33:05 10° N
Cosmos 2266 Rocket 4.2 20:25:09 10° N 20:31:27 56° ENE 20:34:06 33° SE
Cosmos 1023 Rocket 4.4 20:29:45 23° S 20:32:49 60° ESE 20:37:50 10° NNE
Cosmos 2058 4.5 20:29:14 10° NNW 20:33:02 34° W 20:36:38 11° SSW
ARIANE 5 R/B 3.1 20:32:24 39° E 20:33:05 42° ENE 20:37:13 10° N
Terra 3.3 20:33:16 22° ENE 20:33:46 22° ENE 20:37:24 10° NNE
Cosmos 909 Rocket 4.4 20:27:38 10° SW 20:33:56 67° NW 20:40:23 10° NNE
COSMOS 2428 3.8 20:28:59 10° NW 20:34:19 41° WSW 20:38:35 15° S
Cosmos 1633 2.3 20:31:38 10° N 20:35:14 71° E 20:35:23 70° ESE
Cosmos 2344 3.9 20:28:19 10° SW 20:35:44 65° NW 20:43:39 10° NE
OBJECT-B 3.8 20:36:21 10° WSW 20:37:55 13° W 20:39:29 10° WNW
Cosmos-2242 3.0 20:37:38 52° ESE 20:38:08 56° E 20:42:22 10° NNE
Meteor 2-3 Rocket 3.8 20:33:06 10° N 20:38:49 61° ENE 20:40:44 40° SE
Cosmos 1140 Rocket 3.3 20:36:41 25° S 20:39:40 67° ESE 20:44:47 10° NNE
Cosmos 2219 Rocket 3.8 20:38:05 10° NW 20:42:54 29° WSW 20:47:33 11° SSW
Timation 2 Rocket 4.0 20:36:24 10° S 20:42:54 61° ESE 20:49:10 10° NNE
USA 245 3.1 20:44:17 69° E 20:44:23 69° ENE 20:47:46 10° N
Spot 2 Rocket 3.5 20:44:16 47° SE 20:45:32 62° ENE 20:50:33 10° N
Cosmos 2151 3.0 20:49:02 10° NNW 20:53:21 77° W 20:54:07 58° SSW
BREEZE-M (TANK) 3.9 20:42:10 10° WNW 20:58:27 60° SW 20:59:58 44° S
TRAILBLAZER 4.5 20:59:30 10° NW 21:04:11 83° WSW 21:04:32 76° S
Cosmos 1655 Rocket 4.1 20:58:12 10° NNW 21:04:28 73° W 21:07:15 35° S
Lacrosse 5 rocket 4.1 21:02:01 10° NNW 21:04:35 15° N 21:07:13 10° NE
SPOT 1/Viking Rocket 3.8 21:07:32 44° SSW 21:09:03 65° W 21:14:15 10° NNW
BREEZE M DEB (TANK) 3.1 21:02:23 10° W 21:09:10 51° NNW 21:09:52 42° NNE
Cosmos 1869 4.2 21:11:03 41° NNE 21:11:03 41° NNE 21:13:46 10° NNE
Cosmos 2237 Rocket 2.6 21:06:10 10° NNW 21:11:40 55° WSW 21:13:12 42° SSW
Cosmos 1190 Rocket 4.1 21:09:56 29° SSW 21:12:38 74° WNW 21:17:52 10° NNE
Resurs 01 Rocket 3.5 21:13:39 18° SW 21:15:41 25° W 21:19:24 10° NW
COSMOS 2455 2.8 21:20:47 62° ESE 21:20:47 62° ESE 21:26:34 10° NE
Okean 3 Rocket 3.7 21:16:04 10° N 21:20:14 74° N 21:20:14 74° N
CARTOSAT-1 3.7 21:20:55 70° WNW 21:20:55 70° WNW 21:25:02 10° NNW
Cosmos 1766 Rocket 3.7 21:17:11 10° N 21:20:58 67° N 21:20:58 67° N
Cosmos 2263 Rocket 4.3 21:25:51 13° ENE 21:25:51 13° ENE 21:26:40 10° NE
Cosmos 1763 Rocket 4.0 21:18:39 10° N 21:23:15 43° NE 21:23:15 43° NE
Cosmos 2082 3.7 21:24:17 62° E 21:24:17 62° E 21:29:21 10° NNE
Cosmos 2227 Rocket 2.4 21:21:56 21° SW 21:25:48 67° WNW 21:31:28 10° NNE
Meteor 2-15 4.3 21:25:34 64° ESE 21:25:54 65° E 21:31:53 10° NNE
Cosmos 676 Rocket 3.9 21:30:06 81° WSW 21:30:18 85° WNW 21:35:32 10° NNE
Cosmos 2297 Rocket 3.1 21:27:43 10° SW 21:33:09 47° WNW 21:38:37 10° NNE
Timation 1 Rocket 4.2 21:35:59 75° S 21:36:29 84° ESE 21:42:29 10° NNE
Cosmos 2219 4.1 21:32:07 10° SW 21:37:32 47° WNW 21:42:58 10° NNE
NOSS 3-1 (C) 4.4 21:35:01 10° NNW 21:42:17 55° NE 21:44:44 42° E
USA 215 3.3 21:48:19 57° SSW 21:48:54 59° SW 21:55:21 10° NW
ERS-1 Rocket 3.6 21:54:28 48° W 21:54:28 48° W 21:59:10 10° NNW
SL-16 R/B 2.6 22:00:57 10° NNW 22:06:06 55° W 22:06:06 55° W
SPOT 5 4.1 22:07:46 33° WNW 22:07:46 33° WNW 22:11:25 10° NNW
Terra 2.9 22:12:08 40° WNW 22:12:08 40° WNW 22:15:48 10° NNW
Cosmos 1745 Rocket 4.1 22:16:09 10° N 22:21:55 71° NE 22:21:55 71° NE
SeaSat 1 3.8 22:18:32 10° NNE 22:21:10 32° NE 22:21:10 32° NE
Aureole 1 Rocket 4.4 22:33:07 47° N 22:33:07 47° N 22:36:29 10° NNE
S3M 4.1 22:34:13 73° NNE 22:34:13 73° NNE 22:39:59 10° N
Cosmos 1943 3.8 22:29:45 10° NNW 22:34:14 52° NNE 22:34:14 52° NNE
Lacrosse 5 rocket 3.6 22:41:07 10° NW 22:43:43 25° N 22:43:43 25° N
USA 229 DEB 3.8 22:42:39 10° NW 22:50:01 84° NE 22:50:01 84° NE
USA 229 3.8 22:42:44 10° NW 22:50:07 83° NE 22:50:08 83° NE
Cosmos 2263 Rocket 3.0 23:07:30 46° N 23:07:30 46° N 23:11:37 10° NNE
NOSS 3-1 (A) 4.0 23:00:19 10° NW 23:07:57 86° SW 23:07:58 86° SW
Cosmos 1844 Rocket 4.4 23:22:25 24° NE 23:22:25 24° NE 23:24:49 10° NE
Cosmos 2184 Rocket 4.5 23:34:09 10° N 23:39:21 56° NNE 23:39:21 56° NNE
CZ-2D R/B 4.5 23:54:26 10° ENE 23:56:22 14° ENE 23:56:22 14° ENE
